EW9501 Weather Reports


Display with metric or nautical units.
time (UTC)temp
F
wind
direction
speed
MPH
gust
MPH
rain 1hr
in
rain 24hr
in
rain mn
in
humidity
%
barometer
mb
20260503233042 56 0.0 0.0 0.00 0.00 0.00 57 1010.9
20260503231542 58 0.0 0.0 0.00 0.00 0.00 54 1010.8
20260503230037 60 0.0 0.0 0.00 0.00 0.00 38 1010.4
20260503224540 61 0.0 0.0 0.00 0.00 0.00 38 1010.4
20260503223035 61 0.0 0.0 0.00 0.00 0.00 38 1010.5
20260503221542 61 0.0 0.0 0.00 0.00 0.00 38 1010.5
20260503220034 62 0.0 0.0 0.00 0.00 0.00 36 1010.5
20260503214534 61 0.0 0.0 0.00 0.00 0.00 37 1010.5
20260503213034 61 0.0 0.0 0.00 0.00 0.00 35 1010.7
20260503211530 62 0.0 0.0 0.00 0.00 0.00 35 1010.7
20260503210043 62 0.0 0.0 0.00 0.00 0.00 36 1010.8
20260503204528 62 0.0 0.0 0.00 0.00 0.00 35 1010.9
20260503203029 63 0.0 0.0 0.00 0.00 0.00 34 1011.0
20260503201533 63 0.0 0.0 0.00 0.00 0.00 35 1011.3
20260503200026 64 0.0 0.0 0.00 0.00 0.00 36 1011.3
20260503194524 63 0.0 0.0 0.00 0.00 0.00 36 1011.5
20260503193023 64 0.0 0.0 0.00 0.00 0.00 35 1011.7
20260503191521 64 0.0 0.0 0.00 0.00 0.00 34 1011.9
20260503190020 64 0.0 0.0 0.00 0.00 0.00 33 1012.2
20260503184524 63 0.0 0.0 0.00 0.00 0.00 34 1012.5
20260503183022 63 0.0 0.0 0.00 0.00 0.00 35 1012.6
20260503181516 63 0.0 0.0 0.00 0.00 0.00 36 1012.7
20260503180015 62 0.0 0.0 0.00 0.00 0.00 37 1012.9
20260503174512 63 0.0 0.0 0.00 0.00 0.00 34 1013.0
20260503173011 62 0.0 0.0 0.00 0.00 0.00 35 1013.2
20260503171508 62 0.0 0.0 0.00 0.00 0.00 36 1013.5
20260503100114 34 0.0 0.0 0.00 0.02 0.00 81 1015.2
20260503090104 34 0.0 0.0 0.00 0.02 0.00 83 1015.4
20260503081558 35 0.0 0.0 0.00 0.02 0.00 79 1015.4
20260503071546 36 0.0 0.0 0.00 0.02 0.00 76 1015.5
20260503054538 39 0.0 0.0 0.00 0.02 0.00 71 1015.8
20260503053034 39 0.0 0.0 0.00 0.02 0.00 71 1015.9
20260503051533 39 0.0 0.0 0.00 0.02 0.00 71 1015.9
20260503050032 40 0.0 0.0 0.00 0.02 0.00 71 1016.0
20260503044539 40 0.0 0.0 0.00 0.02 0.00 71 1016.0
20260503043027 40 0.0 0.0 0.00 0.02 0.00 70 1015.9
20260503041524 41 0.0 0.0 0.00 0.02 0.00 70 1016.0
20260503040022 42 0.0 0.0 0.00 0.02 0.02 69 1016.0
20260503034522 42 0.0 0.0 0.00 0.02 0.02 70 1016.1
20260503033021 43 0.0 0.0 0.00 0.02 0.02 71 1016.1
20260503031521 43 0.0 0.0 0.00 0.02 0.02 71 1016.1
20260503030020 43 0.0 0.0 0.00 0.02 0.02 70 1016.2
20260503024521 43 0.0 0.0 0.00 0.02 0.02 68 1016.3
20260503023024 43 0.0 0.0 0.00 0.02 0.02 65 1016.3
20260503021519 44 0.0 0.0 0.00 0.02 0.02 65 1016.3
20260503020019 44 0.0 0.0 0.00 0.03 0.02 65 1016.3
20260503014518 44 0.0 0.0 0.00 0.03 0.02 61 1016.3
20260503013026 44 0.0 0.0 0.00 0.03 0.02 62 1016.2
20260503011517 44 0.0 0.0 0.00 0.03 0.02 60 1016.1
20260503010017 45 0.0 0.0 0.00 0.03 0.02 59 1016.1
20260503004517 45 0.0 0.0 0.00 0.03 0.02 55 1016.1
20260503003016 46 0.0 0.0 0.00 0.03 0.02 51 1016.0
20260503001517 46 0.0 0.0 0.00 0.03 0.02 50 1016.0
20260503000015 47 0.0 0.0 0.00 0.03 0.02 49 1015.9
20260502234515 47 0.0 0.0 0.00 0.03 0.02 49 1016.0